Date String (YYYY-MM-DD hh:mm:ss) UTC,Instrument flags,Ambient pressure (hPa),Sample flow (lpm),Bypass flow (lpm),Sample temperature (°C),Ambient temperature (°C),ASC tube jacket temperature (°C),LED temperature (°C),Box temperature (°C),Sample RH (%),Span deviation,Mass concentration (μg/m³),Mass concentration (μg/m³),Mass concentration (μg/m³)
DateTimeUTC,F1_M11,P_M11,Q1_M11,Q2_M11,T1_M11,T2_M11,T3_M11,T4_M11,T5_M11,U1_M11,ZSPAN_M11,X0_M11,X2_M11,X1_M11
2022-03-04 08:00:00,,0822.0,5.00,0.00,28.4,27.5,00.0,37.6,30.1,12.7,-000.1,0032.39,0014.37,0011.83
2022-03-04 08:01:00,,0822.1,5.00,0.00,28.4,27.5,00.0,37.6,30.1,12.7,-000.5,0031.70,0014.38,0011.82
2022-03-04 08:02:00,,0822.1,5.00,0.00,28.4,27.5,00.0,37.5,30.1,12.7,-000.5,0031.84,0014.33,0011.82
2022-03-04 08:03:00,,0821.9,5.01,0.00,28.4,27.5,00.0,37.5,30.1,12.7,-000.3,0031.65,0014.37,0011.81
2022-03-04 08:04:00,,0822.1,4.99,0.00,28.4,27.5,00.0,37.5,30.1,12.7,-000.3,0030.73,0014.35,0011.80
2022-03-04 08:05:00,,0822.0,5.01,0.00,28.4,27.5,00.0,37.5,30.2,12.7,-000.3,0030.93,0014.34,0011.78
2022-03-04 08:06:00,,0822.2,4.99,0.00,28.4,27.5,00.0,37.5,30.2,12.7,0000.0,0030.98,0014.26,0011.76
2022-03-04 08:07:00,,0822.1,4.99,0.00,28.4,27.5,00.0,37.5,30.2,12.7,0000.0,0031.05,0014.29,0011.75
2022-03-04 08:08:00,,0821.9,5.02,0.00,28.4,27.6,00.0,37.5,30.1,12.7,0000.2,0030.99,0014.26,0011.73
2022-03-04 08:09:00,,0821.9,5.00,0.00,28.4,27.5,00.0,37.5,30.1,12.6,0000.7,0031.74,0014.25,0011.69
2022-03-04 08:10:00,,0821.9,5.00,0.00,28.4,27.5,00.0,37.5,30.1,12.6,0000.7,0031.64,0014.20,0011.66
2022-03-04 08:11:00,,0821.9,4.99,0.00,28.4,27.5,00.0,37.4,30.1,12.6,0000.8,0030.76,0014.11,0011.61
2022-03-04 08:12:00,,0821.9,4.99,0.00,28.4,27.5,00.0,37.4,30.1,12.6,0000.6,0030.82,0014.07,0011.55
2022-03-04 08:13:00,,0822.0,5.00,0.00,28.4,27.5,00.0,37.4,30.1,12.6,0000.3,0030.78,0014.07,0011.53
2022-03-04 08:14:00,,0822.1,5.01,0.00,28.4,27.5,00.0,37.4,30.1,12.6,0000.2,0031.21,0013.99,0011.47
2022-03-04 08:15:00,,0822.2,5.00,0.00,28.4,27.5,00.0,37.4,30.1,12.6,0000.1,0030.96,0013.85,0011.41
2022-03-04 08:16:00,,0821.8,5.00,0.00,28.4,27.5,00.0,37.4,30.1,12.6,0000.0,0030.74,0013.77,0011.38
2022-03-04 08:17:00,,0821.8,4.99,0.00,28.4,27.5,00.0,37.4,30.1,12.6,-000.1,0030.69,0013.79,0011.35
2022-03-04 08:18:00,,0821.8,5.01,0.00,28.3,27.5,00.0,37.4,30.1,12.6,-000.4,0031.20,0013.77,0011.35
2022-03-04 08:19:00,,0821.8,5.01,0.00,28.3,27.4,00.0,37.4,30.1,12.6,-000.4,0030.85,0013.77,0011.34
2022-03-04 08:20:00,,0821.9,4.99,0.00,28.3,27.4,00.0,37.4,30.0,12.6,-000.5,0030.25,0013.78,0011.36
2022-03-04 08:21:00,,0821.8,5.00,0.00,28.3,27.4,00.0,37.4,30.0,12.6,-000.6,0031.25,0013.88,0011.38
2022-03-04 08:22:00,,0821.8,5.01,0.00,28.3,27.4,00.0,37.3,30.0,12.7,-000.6,0032.14,0013.94,0011.41
2022-03-04 08:23:00,,0821.7,5.01,0.00,28.3,27.3,00.0,37.3,30.0,12.7,-000.4,0031.85,0013.89,0011.44
2022-03-04 08:24:00,,0821.8,4.98,0.00,28.2,27.3,00.0,37.3,30.0,12.7,-000.2,0032.19,0013.84,0011.43
2022-03-04 08:25:00,,0821.8,4.99,0.00,28.2,27.2,00.0,37.3,30.0,12.7,0000.2,0030.87,0013.88,0011.46
2022-03-04 08:26:00,,0821.8,5.00,0.00,28.2,27.2,00.0,37.3,30.0,12.7,0000.3,0031.62,0014.05,0011.50
2022-03-04 08:27:00,,0821.8,5.01,0.00,28.2,27.3,00.0,37.3,30.0,12.7,0000.5,0031.43,0014.14,0011.54
2022-03-04 08:28:00,,0821.7,4.99,0.00,28.2,27.3,00.0,37.3,30.0,12.7,0000.5,0031.68,0014.22,0011.59
2022-03-04 08:29:00,,0821.7,4.99,0.00,28.2,27.2,00.0,37.3,30.0,12.7,0000.5,0031.17,0014.21,0011.64
2022-03-04 08:30:00,,0821.7,5.00,0.00,28.2,27.2,00.0,37.2,29.9,12.6,0000.6,0032.06,0014.30,0011.72
2022-03-04 08:31:00,,0821.9,5.02,0.00,28.2,27.2,00.0,37.2,29.9,12.6,0000.7,0031.46,0014.32,0011.78
2022-03-04 08:32:00,,0821.8,5.00,0.00,28.2,27.2,00.0,37.2,29.9,12.6,0000.6,0030.60,0014.34,0011.87
2022-03-04 08:33:00,,0821.7,4.99,0.00,28.2,27.3,00.0,37.2,29.9,12.5,0000.8,0029.79,0014.45,0012.01
2022-03-04 08:34:00,,0821.6,4.99,0.00,28.2,27.3,00.0,37.2,30.0,12.5,0000.7,0031.04,0014.68,0012.18
2022-03-04 08:35:00,,0821.7,5.01,0.00,28.2,27.2,00.0,37.2,29.9,12.5,0001.0,0031.27,0014.84,0012.33
2022-03-04 08:36:00,,0821.8,5.01,0.00,28.2,27.3,00.0,37.2,29.9,12.5,0000.8,0032.69,0015.02,0012.46
2022-03-04 08:37:00,,0821.8,5.00,0.00,28.2,27.3,00.0,37.2,29.9,12.5,0000.6,0032.72,0015.17,0012.57
2022-03-04 08:38:00,,0821.7,5.00,0.00,28.2,27.3,00.0,37.2,29.9,12.5,0000.4,0033.01,0015.32,0012.68
2022-03-04 08:39:00,,0821.7,4.99,0.00,28.1,27.2,00.0,37.2,29.9,12.5,0000.5,0032.77,0015.42,0012.79
2022-03-04 08:40:00,,0821.7,4.99,0.00,28.1,27.2,00.0,37.2,29.9,12.5,0000.9,0032.64,0015.62,0012.91
2022-03-04 08:41:00,,0821.7,5.01,0.00,28.1,27.2,00.0,37.1,29.9,12.5,0000.7,0033.55,0015.74,0012.99
2022-03-04 08:42:00,,0821.7,5.00,0.00,28.1,27.2,00.0,37.1,29.9,12.5,0000.4,0035.10,0015.85,0013.07
2022-03-04 08:43:00,,0821.7,5.00,0.00,28.1,27.2,00.0,37.1,29.9,12.6,0000.2,0034.73,0015.93,0013.13
2022-03-04 08:44:00,,0821.7,5.01,0.00,28.1,27.3,00.0,37.1,29.9,12.6,0000.2,0034.41,0015.95,0013.13
2022-03-04 08:45:00,,0821.7,5.00,0.00,28.1,27.3,00.0,37.1,29.9,12.5,0000.2,0033.29,0015.94,0013.11
2022-03-04 08:46:00,,0821.6,4.99,0.00,28.1,27.2,00.0,37.1,29.9,12.5,-000.0,0033.04,0016.02,0013.11
2022-03-04 08:47:00,,0821.5,4.99,0.00,28.1,27.2,00.0,37.1,29.9,12.5,0000.1,0032.38,0016.03,0013.08
2022-03-04 08:48:00,,0821.5,5.00,0.00,28.1,27.2,00.0,37.1,29.9,12.6,0000.3,0032.20,0015.96,0013.08
2022-03-04 08:49:00,,0821.5,5.00,0.00,28.1,27.2,00.0,37.1,29.9,12.6,0000.5,0031.96,0015.91,0013.08
2022-03-04 08:50:00,,0821.5,5.01,0.00,28.1,27.2,00.0,37.1,29.9,12.6,0000.4,0031.49,0015.83,0013.04
2022-03-04 08:51:00,,0821.4,4.99,0.00,28.1,27.2,00.0,37.1,29.9,12.6,0000.0,0031.00,0015.72,0013.02
2022-03-04 08:52:00,,0821.4,4.99,0.00,28.1,27.2,00.0,37.1,29.9,12.6,0000.0,0030.26,0015.73,0013.03
2022-03-04 08:53:00,,0821.4,5.00,0.00,28.1,27.2,00.0,37.1,29.8,12.6,0000.3,0030.24,0015.76,0013.05
2022-03-04 08:54:00,,0821.4,5.02,0.00,28.1,27.2,00.0,37.1,29.8,12.6,0000.7,0031.32,0015.73,0013.04
2022-03-04 08:55:00,,0821.5,5.00,0.00,28.0,27.1,00.0,37.0,29.8,12.7,0000.7,0031.68,0015.76,0013.02
2022-03-04 08:56:00,,0821.5,5.00,0.00,28.0,27.1,00.0,37.0,29.8,12.8,0000.6,0031.55,0015.74,0012.99
2022-03-04 08:57:00,,0821.5,5.00,0.00,28.0,27.1,00.0,37.0,29.8,12.8,0000.6,0031.37,0015.62,0012.95
2022-03-04 08:58:00,,0821.4,5.01,0.00,28.0,27.1,00.0,37.0,29.8,12.8,0000.5,0031.53,0015.54,0012.93
2022-03-04 08:59:00,,0821.4,5.00,0.00,28.0,27.1,00.0,37.0,29.8,12.9,0000.5,0031.97,0015.50,0012.89
